When you browse on this site, cookies collect data to enhance your experience and personalize the content and advertising you see.
Visit our Privacy Policy to learn more. By continuing to use the site, you agree to this use of cookies and data.
  • In Hungary
  • List of Countries
  • For 7 days
  • Water Temperature
  • Weather Map
  • News
  • Weather Widgets
  • user-avatar
    Login

    Hourly Weather Melekshino

    Today, 20 January, Monday

    Time Temperature Precipitation Wind Pressure Humidity
    00:00 -2°C° 0 mm 3 mps 760 mmHg 93%
    01:00 -3°C° 0 mm 4 mps 760 mmHg 93%
    02:00 -3°C° 0 mm 4 mps 760 mmHg 93%
    03:00 -3°C° 0 mm 4 mps 760 mmHg 93%
    04:00 -3°C° 0 mm 4 mps 760 mmHg 93%
    05:00 -3°C° 0 mm 4 mps 760 mmHg 93%
    06:00 -3°C° 0 mm 4 mps 759 mmHg 92%
    07:00 -3°C° 0 mm 4 mps 759 mmHg 93%
    08:00 -4°C° 0 mm 5 mps 759 mmHg 93%
    09:00 -4°C° 0 mm 5 mps 759 mmHg 93%
    10:00 -2°C° 0 mm 5 mps 759 mmHg 92%
    11:00 -3°C° 0 mm 6 mps 759 mmHg 92%
    12:00 -2°C° 0 mm 6 mps 758 mmHg 91%
    13:00 -2°C° 0 mm 6 mps 758 mmHg 91%
    14:00 -2°C° 0 mm 6 mps 758 mmHg 91%
    15:00 -1°C° 0 mm 5 mps 758 mmHg 91%
    16:00 -1°C° 0 mm 5 mps 758 mmHg 93%
    17:00 -1°C° 0 mm 5 mps 758 mmHg 94%
    18:00 -2°C° 0 mm 6 mps 757 mmHg 96%
    19:00 -1°C° 0 mm 5 mps 757 mmHg 96%
    20:00 -1°C° 0 mm 5 mps 757 mmHg 96%
    21:00 -1°C° 0 mm 5 mps 757 mmHg 96%
    22:00 -1°C° 0 mm 5 mps 756 mmHg 95%
    23:00 -2°C° 0 mm 5 mps 756 mmHg 94%

    Tomorrow, 21 January, Tuesday

    Time Temperature Precipitation Wind Pressure Humidity
    00:00 -2°C° 0 mm 5 mps 756 mmHg 94%
    01:00 -2°C° 0 mm 5 mps 755 mmHg 93%
    02:00 -2°C° 0 mm 5 mps 755 mmHg 93%
    03:00 -2°C° 0 mm 5 mps 755 mmHg 92%
    04:00 -4°C° 0 mm 5 mps 754 mmHg 91%
    05:00 -4°C° 0 mm 5 mps 754 mmHg 90%
    06:00 -4°C° 0 mm 5 mps 753 mmHg 89%
    07:00 -4°C° 0 mm 6 mps 752 mmHg 90%
    08:00 -4°C° 0 mm 6 mps 752 mmHg 92%
    09:00 -4°C° 0 mm 6 mps 751 mmHg 93%
    10:00 -4°C° 0.3 mm 7 mps 750 mmHg 94%
    11:00 -4°C° 0.3 mm 7 mps 749 mmHg 95%
    12:00 -4°C° 0.3 mm 8 mps 748 mmHg 95%
    13:00 -4°C° 0.6 mm 8 mps 748 mmHg 96%
    14:00 -2°C° 0.6 mm 8 mps 747 mmHg 96%
    15:00 -2°C° 0.6 mm 8 mps 747 mmHg 97%
    16:00 -2°C° 0.1 mm 7 mps 746 mmHg 97%
    17:00 -1°C° 0.1 mm 7 mps 745 mmHg 97%
    18:00 -1°C° 0.1 mm 6 mps 744 mmHg 97%
    19:00 -1°C° 0.2 mm 6 mps 743 mmHg 97%
    20:00 -1°C° 0.2 mm 6 mps 743 mmHg 97%
    21:00 0°C° 0.2 mm 7 mps 742 mmHg 97%
    22:00 0°C° 0.9 mm 7 mps 741 mmHg 97%
    23:00 0°C° 0.9 mm 8 mps 740 mmHg 96%

    Day after tomorrow, 22 January, Wednesday

    Time Temperature Precipitation Wind Pressure Humidity
    00:00 0°C° 0.9 mm 8 mps 738 mmHg 96%
    01:00 0°C° 0.2 mm 8 mps 739 mmHg 94%
    02:00 +1°C° 0.2 mm 8 mps 739 mmHg 93%
    03:00 +1°C° 0.2 mm 8 mps 739 mmHg 91%
    04:00 -1°C° 0 mm 7 mps 739 mmHg 87%
    05:00 -2°C° 0 mm 7 mps 739 mmHg 83%
    06:00 -3°C° 0 mm 7 mps 739 mmHg 79%
    07:00 -3°C° 0 mm 6 mps 739 mmHg 80%
    08:00 -4°C° 0 mm 6 mps 739 mmHg 81%
    09:00 -4°C° 0 mm 6 mps 739 mmHg 81%
    10:00 -4°C° 0 mm 6 mps 739 mmHg 81%
    11:00 -3°C° 0 mm 6 mps 739 mmHg 80%
    12:00 -3°C° 0 mm 7 mps 739 mmHg 79%
    13:00 -3°C° 0 mm 6 mps 738 mmHg 78%
    14:00 -3°C° 0 mm 6 mps 738 mmHg 77%
    15:00 -2°C° 0 mm 5 mps 737 mmHg 77%
    16:00 -2°C° 0 mm 5 mps 737 mmHg 78%
    17:00 -2°C° 0 mm 5 mps 737 mmHg 80%
    18:00 -3°C° 0 mm 4 mps 737 mmHg 82%
    19:00 -3°C° 0 mm 4 mps 737 mmHg 83%
    20:00 -3°C° 0 mm 4 mps 736 mmHg 84%
    21:00 -3°C° 0 mm 4 mps 736 mmHg 85%
    22:00 -5°C° 0.1 mm 5 mps 736 mmHg 85%
    23:00 -5°C° 0.1 mm 5 mps 736 mmHg 84%

    23 January, Thursday

    Time Temperature Precipitation Wind Pressure Humidity
    00:00 -5°C° 0.1 mm 5 mps 736 mmHg 84%
    01:00 -5°C° 0 mm 5 mps 737 mmHg 85%
    02:00 -5°C° 0 mm 6 mps 737 mmHg 87%
    03:00 -5°C° 0 mm 6 mps 738 mmHg 89%
    04:00 -6°C° 0 mm 6 mps 738 mmHg 86%
    05:00 -6°C° 0 mm 5 mps 738 mmHg 83%
    06:00 -6°C° 0 mm 5 mps 738 mmHg 80%
    07:00 -6°C° 0.1 mm 6 mps 739 mmHg 80%
    08:00 -6°C° 0.1 mm 6 mps 740 mmHg 81%
    09:00 -8°C° 0.1 mm 7 mps 741 mmHg 81%
    10:00 -8°C° 0 mm 7 mps 741 mmHg 77%
    11:00 -8°C° 0 mm 8 mps 742 mmHg 73%
    12:00 -10°C° 0 mm 8 mps 743 mmHg 68%
    13:00 -9°C° 0 mm 7 mps 743 mmHg 68%
    14:00 -9°C° 0 mm 7 mps 744 mmHg 67%
    15:00 -9°C° 0 mm 7 mps 745 mmHg 67%
    16:00 -9°C° 0 mm 6 mps 745 mmHg 68%
    17:00 -10°C° 0 mm 6 mps 746 mmHg 70%
    18:00 -10°C° 0 mm 5 mps 747 mmHg 71%
    19:00 -10°C° 0 mm 5 mps 747 mmHg 72%
    20:00 -10°C° 0 mm 5 mps 748 mmHg 73%
    21:00 -11°C° 0 mm 5 mps 749 mmHg 75%
    22:00 -10°C° 0 mm 4 mps 749 mmHg 76%
    23:00 -10°C° 0 mm 4 mps 750 mmHg 77%

    24 January, Friday

    Time Temperature Precipitation Wind Pressure Humidity
    00:00 -9°C° 0 mm 3 mps 750 mmHg 79%
    01:00 -10°C° 0 mm 4 mps 751 mmHg 79%
    02:00 -11°C° 0 mm 4 mps 751 mmHg 79%
    03:00 -11°C° 0 mm 4 mps 751 mmHg 80%
    04:00 -11°C° 0 mm 4 mps 751 mmHg 80%
    05:00 -10°C° 0 mm 4 mps 751 mmHg 81%
    06:00 -9°C° 0 mm 3 mps 751 mmHg 82%
    07:00 -9°C° 0 mm 3 mps 751 mmHg 82%
    08:00 -10°C° 0 mm 4 mps 750 mmHg 82%
    09:00 -10°C° 0 mm 4 mps 750 mmHg 82%
    10:00 -9°C° 0 mm 4 mps 750 mmHg 84%
    11:00 -8°C° 0 mm 5 mps 750 mmHg 85%
    12:00 -8°C° 0 mm 6 mps 749 mmHg 87%
    13:00 -6°C° 0.1 mm 6 mps 749 mmHg 88%
    14:00 -6°C° 0.1 mm 6 mps 748 mmHg 89%
    15:00 -5°C° 0.1 mm 6 mps 747 mmHg 90%
    16:00 -5°C° 0 mm 6 mps 747 mmHg 91%
    17:00 -5°C° 0 mm 6 mps 747 mmHg 92%
    18:00 -5°C° 0 mm 6 mps 746 mmHg 92%
    19:00 -5°C° 0 mm 6 mps 746 mmHg 92%
    20:00 -4°C° 0 mm 6 mps 746 mmHg 92%
    21:00 -4°C° 0 mm 6 mps 746 mmHg 92%
    22:00 -3°C° 0.1 mm 6 mps 745 mmHg 93%
    23:00 -3°C° 0.1 mm 6 mps 745 mmHg 93%

    25 January, Saturday

    Time Temperature Precipitation Wind Pressure Humidity
    00:00 -2°C° 0.1 mm 6 mps 745 mmHg 93%
    01:00 -2°C° 0 mm 6 mps 744 mmHg 93%
    02:00 -2°C° 0 mm 7 mps 744 mmHg 93%
    03:00 -1°C° 0 mm 7 mps 744 mmHg 94%
    04:00 -2°C° 0.4 mm 7 mps 744 mmHg 95%
    05:00 -2°C° 0.4 mm 7 mps 744 mmHg 96%
    06:00 -2°C° 0.4 mm 7 mps 744 mmHg 97%
    07:00 -2°C° 0.2 mm 7 mps 744 mmHg 97%
    08:00 -2°C° 0.2 mm 6 mps 744 mmHg 97%
    09:00 -2°C° 0.2 mm 6 mps 744 mmHg 97%
    10:00 -2°C° 0.1 mm 6 mps 744 mmHg 96%
    11:00 -2°C° 0.1 mm 6 mps 745 mmHg 95%
    12:00 -2°C° 0.1 mm 6 mps 745 mmHg 95%
    13:00 -1°C° 0 mm 6 mps 745 mmHg 94%
    14:00 -1°C° 0 mm 6 mps 746 mmHg 94%
    15:00 0°C° 0 mm 5 mps 746 mmHg 94%
    16:00 0°C° 0 mm 5 mps 746 mmHg 93%
    17:00 -1°C° 0 mm 5 mps 746 mmHg 93%
    18:00 -1°C° 0 mm 5 mps 747 mmHg 92%
    19:00 -1°C° 0 mm 5 mps 747 mmHg 92%
    20:00 -1°C° 0 mm 5 mps 747 mmHg 92%
    21:00 -1°C° 0 mm 5 mps 747 mmHg 93%
    22:00 -1°C° 0 mm 5 mps 748 mmHg 93%
    23:00 -1°C° 0 mm 5 mps 748 mmHg 94%
    Show more